Simultaneous Nadir Overpasses (SNOs) Predictions

Prediction of SNOs between FY3D and AQUA Satellite Orbit:

Table of predicted SNOs for the next 14.0 days since TLE Epoch: 12/31/2022
Index Date (FY3D) Time (FY3D) Lat,Lon (FY3D) SZA (FY3D ) Date (AQUA) Time (AQUA) Lat,Lon (AQUA) SZA (AQUA ) Distance(km) Time Diff (sec)
1 01/02/2023 04:26:52 77.96, 96.20 101.39 01/02/2023 04:27:38 77.96, 96.28 101.37 2.03 46
2 01/02/2023 05:17:23 -77.37, -93.57 79.36 01/02/2023 05:16:50 -77.36, -93.50 79.36 1.99 33
3 01/04/2023 19:03:20 77.79,-121.99 100.93 01/04/2023 19:04:02 77.79,-122.06 100.93 1.72 42
4 01/04/2023 19:53:51 -77.18, 48.17 79.83 01/04/2023 19:53:14 -77.19, 48.09 79.81 2.14 37
5 01/07/2023 09:39:56 77.94, 18.12 100.83 01/07/2023 09:40:32 77.93, 18.21 100.81 2.39 36
6 01/07/2023 10:30:27 -77.34,-171.62 79.93 01/07/2023 10:29:44 -77.33,-171.57 79.93 1.42 43
7 01/10/2023 00:16:27 77.90, 159.25 100.44 01/10/2023 00:16:57 77.89, 159.32 100.42 1.80 30
8 01/10/2023 01:06:57 -77.24, -30.30 80.39 01/10/2023 01:06:08 -77.24, -30.29 80.38 0.38 49
9 01/12/2023 14:52:58 77.89, -59.85 100.05 01/12/2023 14:53:21 77.88, -59.74 100.02 2.78 23



Historial Predications of SNOs between FY3D and AQUA
